Location: Hiram
(41.3130°N, 81.1440°W)
Time: 07:20:25
(UTC-04:00)

Amateur Radio Satellites - All Passes

Search period start: 20 October 2014 06:50
Search period end: 21 October 2014 06:50
Location: Hiram, 41.3130°N, 81.1440°W

Satellite Date Start Highest point End Downlink Frequencies (MHz)
Time Altitude Azimuth
Uosat F 20 Oct 06:57:15 07:01:32 29° 294° (WNW) 07:05:49 435.120 FM
STRAND 1 20 Oct 07:21:50 07:26:57 83° 75° (ENE) 07:32:07 ?
RS-15 20 Oct 07:26:00 07:36:28 44° 42° (NE) 07:47:17 29.354 - 29.394 USB, Beacon 29.352 USB
JAS-2 20 Oct 07:59:57 08:07:06 47° 292° (WNW) 08:14:29 435.800 - 435.900 CW/SSB, 435.910 FM
Sapphire 20 Oct 08:01:36 08:04:05 13° 322° (NW) 08:06:35 437.095 MHz 1200 baud AX-25 AFSK
Hamsat 20 Oct 08:23:16 08:26:14 19° 293° (WNW) 08:29:13 145.90 MHz
AO-7 20 Oct 08:27:20 08:31:45 16° 313° (NW) 08:36:11 29.400 - 29.500 MHz
SO-67 20 Oct 08:30:24 08:33:52 79° 102° (ESE) 08:37:18 435.3500 MHz FM
STRAND 1 20 Oct 09:05:20 09:06:46 11° 271° (W) 09:08:13 ?
HO-68 20 Oct 09:07:30 09:12:18 19° 91° (E) 09:17:04 435.675 MHz FM
Saudisat 1A 20 Oct 09:30:21 09:34:41 67° 120° (ESE) 09:39:04 436.775 MHz
RS-15 20 Oct 09:38:26 09:49:22 63° 245° (WSW) 10:00:48 29.354 - 29.394 USB, Beacon 29.352 USB
Oscar 11 20 Oct 10:19:33 10:22:47 21° 94° (E) 10:26:00 145.825 FM, Beacon 2401.500 USB
MaSat-1 20 Oct 10:31:42 10:33:56 22° 56° (NE) 10:36:00 437.345 MHz
HO-68 20 Oct 10:53:30 11:00:43 79° 288° (WNW) 11:07:53 435.675 MHz FM
ZACube-1 20 Oct 10:54:19 10:57:32 20° 93° (E) 11:00:42 437.345 MHz
UKube-1 20 Oct 11:08:31 11:12:55 79° 103° (ESE) 11:17:16 145.840 MHz, 145.915 MHz
Saudisat 1A 20 Oct 11:11:47 11:14:42 17° 319° (NW) 11:17:38 436.775 MHz
PANSAT 20 Oct 11:33:55 11:35:14 12° 175° (S) 11:36:33 not established
FUNcube-1 20 Oct 11:39:32 11:43:50 66° 101° (E) 11:48:01 145.950 - 145.970 MHz USB
Oscar 11 20 Oct 11:55:08 11:59:02 34° 290° (WNW) 12:02:55 145.825 FM, Beacon 2401.500 USB
RS-15 20 Oct 11:55:57 11:59:25 12° 265° (W) 12:02:56 29.354 - 29.394 USB, Beacon 29.352 USB
ZACube-1 20 Oct 12:30:08 12:34:02 33° 290° (WNW) 12:37:49 437.345 MHz
Oscar 16 20 Oct 12:39:46 12:42:27 14° 60° (ENE) 12:45:09 437.025 USB, Beacon 2401.1428
HO-68 20 Oct 12:43:12 12:47:18 16° 307° (NW) 12:51:24 435.675 MHz FM
UKube-1 20 Oct 12:47:27 12:48:27 11° 300° (WNW) 12:49:26 145.840 MHz, 145.915 MHz
JAS-1B 20 Oct 12:57:13 13:01:13 19° 61° (ENE) 13:05:04 435.800 - 435.900 CW/SSB
PANSAT 20 Oct 13:13:48 13:14:35 11° 188° (S) 13:15:22 not established
AO-Echo 20 Oct 13:15:04 13:17:35 14° 60° (ENE) 13:20:09 ?
FUNcube-1 20 Oct 13:18:03 13:19:37 12° 298° (WNW) 13:21:11 145.950 - 145.970 MHz USB
Sapphire 20 Oct 13:19:53 13:23:31 18° 42° (NE) 13:27:07 437.095 MHz 1200 baud AX-25 AFSK
KITSAT 1 20 Oct 13:30:50 13:38:39 57° 113° (ESE) 13:46:30 435.175 FM
Oscar 19 20 Oct 13:31:32 13:36:20 40° 69° (ENE) 13:41:08 437.125 CW, 437.150 USB
AO-27 20 Oct 13:37:56 13:41:44 21° 63° (ENE) 13:45:32 436.795 MHz FM
PCSat 20 Oct 13:42:30 13:47:03 26° 48° (NE) 13:51:34 145.825 MHz
SO-50 20 Oct 14:02:50 14:06:29 25° 112° (ESE) 14:10:14 436.795 FM
Oscar 16 20 Oct 14:15:59 14:21:09 77° 257° (WSW) 14:26:20 437.025 USB, Beacon 2401.1428
Gurwin Techsat 1B 20 Oct 14:23:05 14:27:29 27° 66° (ENE) 14:31:55 435.225 FM
Uribyol 2 20 Oct 14:26:38 14:31:44 59° 72° (ENE) 14:36:53 436.500 FM
ITAMSAT 1 20 Oct 14:31:22 14:36:29 61° 72° (ENE) 14:41:38 435.822 SSB
TMSAT-1 20 Oct 14:37:34 14:41:58 28° 66° (ENE) 14:46:23 436.925 FM
JAS-1B 20 Oct 14:45:20 14:51:30 61° 258° (WSW) 14:57:10 435.800 - 435.900 CW/SSB
ISS 20 Oct 14:50:02 14:53:09 38° 137° (SE) 14:56:17 145.800 FM
AO-Echo 20 Oct 14:50:55 14:55:42 71° 258° (WSW) 15:00:41 ?
Sapphire 20 Oct 15:02:11 15:07:38 84° 242° (WSW) 15:13:03 437.095 MHz 1200 baud AX-25 AFSK
Oscar 19 20 Oct 15:11:38 15:15:47 24° 266° (W) 15:19:57 437.125 CW, 437.150 USB
AO-27 20 Oct 15:15:48 15:20:51 52° 260° (W) 15:25:57 436.795 MHz FM
PCSat 20 Oct 15:25:29 15:30:43 50° 247° (WSW) 15:35:54 145.825 MHz
KITSAT 1 20 Oct 15:27:01 15:34:23 38° 314° (NW) 15:41:47 435.175 FM
AO-7 20 Oct 15:39:24 15:46:51 39° 60° (ENE) 15:54:18 29.400 - 29.500 MHz
SO-50 20 Oct 15:42:39 15:46:50 37° 310° (NW) 15:51:10 436.795 FM
UOSAT-12 20 Oct 15:52:44 15:56:44 30° 114° (ESE) 16:00:50 437.025 FM, 437.400 FM
Gurwin Techsat 1B 20 Oct 16:02:20 16:07:16 39° 262° (W) 16:12:13 435.225 FM
Uribyol 2 20 Oct 16:08:16 16:11:35 17° 269° (W) 16:14:56 436.500 FM
ITAMSAT 1 20 Oct 16:13:12 16:16:23 16° 269° (W) 16:19:35 435.822 SSB
TMSAT-1 20 Oct 16:16:47 16:21:42 38° 262° (W) 16:26:39 436.925 FM
Oscar 10/S400 20 Oct 16:24:19 16:42:06 52° 162° (SSE) 17:25:18 145.825 - 145.975 CW/USB, Beacon 145.810 USB
ISS 20 Oct 16:26:53 16:29:54 30° 335° (NNW) 16:32:55 145.800 FM
JAS-2 20 Oct 16:30:31 16:33:41 15° 54° (NE) 16:37:02 435.800 - 435.900 CW/SSB, 435.910 FM
Uosat F 20 Oct 16:31:29 16:36:17 47° 71° (ENE) 16:41:06 435.120 FM
Sapphire 20 Oct 16:49:13 16:50:10 10° 259° (W) 16:51:06 437.095 MHz 1200 baud AX-25 AFSK
KITSAT 1 20 Oct 17:28:51 17:32:35 14° 341° (NNW) 17:36:19 435.175 FM
AO-7 20 Oct 17:31:29 17:39:25 50° 259° (W) 17:47:24 29.400 - 29.500 MHz
UOSAT-12 20 Oct 17:32:34 17:36:48 34° 312° (NW) 17:41:07 437.025 FM, 437.400 FM
Hamsat 20 Oct 17:40:14 17:43:47 27° 69° (ENE) 17:47:18 145.90 MHz
OPAL 20 Oct 17:56:26 18:00:36 26° 97° (E) 18:04:43 ?
Saudisat 1A 20 Oct 17:57:00 18:01:20 53° 53° (NE) 18:05:40 436.775 MHz
ISS 20 Oct 18:05:28 18:07:24 14° 355° (N) 18:09:21 145.800 FM
Uosat F 20 Oct 18:11:41 18:15:18 20° 267° (W) 18:18:56 435.120 FM
JAS-2 20 Oct 18:11:55 18:17:36 88° 75° (ENE) 18:24:06 435.800 - 435.900 CW/SSB, 435.910 FM
SO-67 20 Oct 19:03:24 19:06:13 24° 71° (ENE) 19:09:04 435.3500 MHz FM
Hamsat 20 Oct 19:16:08 19:19:40 25° 265° (W) 19:23:11 145.90 MHz
KITSAT 1 20 Oct 19:29:30 19:32:25 12° 13° (NNE) 19:35:20 435.175 FM
STRAND 1 20 Oct 19:32:56 19:37:21 28° 95° (E) 19:41:44 ?
OPAL 20 Oct 19:35:01 19:39:32 36° 294° (WNW) 19:44:01 ?
Saudisat 1A 20 Oct 19:37:44 19:40:29 16° 250° (WSW) 19:43:13 436.775 MHz
HO-68 20 Oct 19:37:58 19:41:59 16° 52° (NE) 19:46:01 435.675 MHz FM
ISS 20 Oct 19:42:39 19:45:05 18° 15° (NNE) 19:47:31 145.800 FM
JAS-2 20 Oct 20:01:27 20:03:48 12° 276° (W) 20:06:14 435.800 - 435.900 CW/SSB, 435.910 FM
SO-67 20 Oct 20:36:48 20:39:11 18° 266° (W) 20:41:36 435.3500 MHz FM
STRAND 1 20 Oct 21:11:54 21:16:33 35° 292° (WNW) 21:21:11 ?
Oscar 11 20 Oct 21:15:12 21:18:04 18° 65° (ENE) 21:20:56 145.825 FM, Beacon 2401.500 USB
ISS 20 Oct 21:18:55 21:22:16 70° 34° (NE) 21:25:35 145.800 FM
HO-68 20 Oct 21:21:26 21:28:34 79° 72° (ENE) 21:35:45 435.675 MHz FM
KITSAT 1 20 Oct 21:24:03 21:31:02 31° 42° (NE) 21:37:58 435.175 FM
AO-40 20 Oct 21:48:41 23:46:24 27° 215° (SW) 03:39:26 Beacon 2401.320
ZACube-1 20 Oct 21:50:55 21:54:12 20° 66° (ENE) 21:57:27 437.345 MHz
RS-15 20 Oct 21:53:55 22:01:15 21° 100° (E) 22:08:30 29.354 - 29.394 USB, Beacon 29.352 USB
UKube-1 20 Oct 22:03:45 22:08:04 68° 74° (ENE) 22:12:24 145.840 MHz, 145.915 MHz
SO-50 20 Oct 22:33:37 22:37:46 28° 46° (NE) 22:41:58 436.795 FM
FUNcube-1 20 Oct 22:35:21 22:39:50 54° 73° (ENE) 22:44:17 145.950 - 145.970 MHz USB
Oscar 11 20 Oct 22:49:47 22:53:55 43° 261° (W) 22:58:04 145.825 FM, Beacon 2401.500 USB
ISS 20 Oct 22:56:50 22:58:34 14° 230° (SW) 23:00:18 145.800 FM
HO-68 20 Oct 23:12:12 23:16:58 19° 269° (W) 23:21:47 435.675 MHz FM
KITSAT 1 20 Oct 23:19:06 23:27:09 73° 243° (WSW) 23:35:09 435.175 FM
ZACube-1 20 Oct 23:25:52 23:30:16 44° 262° (W) 23:34:39 437.345 MHz
UKube-1 20 Oct 23:43:47 23:44:42 11° 270° (W) 23:45:37 145.840 MHz, 145.915 MHz
RS-15 21 Oct 00:00:55 00:11:57 88° 121° (ESE) 00:22:56 29.354 - 29.394 USB, Beacon 29.352 USB
MaSat-1 21 Oct 00:11:30 00:12:47 11° 104° (ESE) 00:14:03 437.345 MHz
FUNcube-1 21 Oct 00:13:52 00:16:30 15° 269° (W) 00:19:07 145.950 - 145.970 MHz USB
SO-50 21 Oct 00:13:54 00:18:28 42° 244° (WSW) 00:23:02 436.795 FM
UOSAT-12 21 Oct 00:21:57 00:26:06 29° 47° (NE) 00:30:10 437.025 FM, 437.400 FM
KITSAT 1 21 Oct 01:17:49 01:21:07 13° 262° (W) 01:24:26 435.175 FM
MaSat-1 21 Oct 01:43:55 01:48:11 65° 297° (WNW) 01:52:04 437.345 MHz
Oscar 19 21 Oct 01:44:40 01:47:13 14° 90° (E) 01:49:45 437.125 CW, 437.150 USB
UOSAT-12 21 Oct 02:01:59 02:06:18 36° 245° (WSW) 02:10:32 437.025 FM, 437.400 FM
RS-15 21 Oct 02:16:17 02:25:47 33° 327° (NNW) 02:35:23 29.354 - 29.394 USB, Beacon 29.352 USB
JAS-1B 21 Oct 02:27:32 02:33:28 35° 98° (E) 02:40:21 435.800 - 435.900 CW/SSB
Oscar 16 21 Oct 02:27:56 02:32:41 37° 98° (E) 02:37:24 437.025 USB, Beacon 2401.1428
Uribyol 2 21 Oct 02:40:14 02:44:07 21° 93° (E) 02:47:58 436.500 FM
ITAMSAT 1 21 Oct 02:45:02 02:49:02 22° 93° (E) 02:52:59 435.822 SSB
AO-Echo 21 Oct 02:57:57 03:02:54 39° 97° (E) 03:07:50 ?
Oscar 19 21 Oct 03:21:57 03:27:03 69° 286° (WNW) 03:32:06 437.125 CW, 437.150 USB
AO-27 21 Oct 03:28:39 03:33:49 57° 101° (E) 03:38:56 436.795 MHz FM
Sapphire 21 Oct 04:04:43 04:06:32 12° 102° (ESE) 04:08:22 437.095 MHz 1200 baud AX-25 AFSK
Oscar 16 21 Oct 04:07:37 04:11:51 27° 294° (WNW) 04:16:04 437.025 USB, Beacon 2401.1428
Gurwin Techsat 1B 21 Oct 04:18:00 04:23:21 85° 104° (ESE) 04:28:40 435.225 FM
JAS-1B 21 Oct 04:18:12 04:24:07 41° 291° (WNW) 04:31:00 435.800 - 435.900 CW/SSB
Uribyol 2 21 Oct 04:18:49 04:23:49 48° 290° (WNW) 04:28:47 436.500 FM
ITAMSAT 1 21 Oct 04:23:44 04:28:44 46° 290° (WNW) 04:33:41 435.822 SSB
PCSat 21 Oct 04:25:19 04:29:16 21° 106° (ESE) 04:33:15 145.825 MHz
TMSAT-1 21 Oct 04:32:05 04:37:25 85° 103° (ESE) 04:42:43 436.925 FM
RS-15 21 Oct 04:35:22 04:42:59 20° 2° (N) 04:50:43 29.354 - 29.394 USB, Beacon 29.352 USB
AO-Echo 21 Oct 04:37:02 04:41:27 28° 294° (WNW) 04:45:54 ?
Uosat F 21 Oct 04:40:41 04:43:23 14° 91° (E) 04:46:05 435.120 FM
AO-27 21 Oct 05:09:15 05:12:52 19° 298° (WNW) 05:16:28 436.795 MHz FM
OPAL 21 Oct 05:10:58 05:15:56 50° 69° (ENE) 05:20:53 ?
JAS-2 21 Oct 05:22:03 05:26:33 16° 87° (E) 05:31:04 435.800 - 435.900 CW/SSB, 435.910 FM
AO-7 21 Oct 05:32:26 05:40:38 58° 103° (ESE) 05:48:48 29.400 - 29.500 MHz
Sapphire 21 Oct 05:43:43 05:49:07 89° 299° (WNW) 05:54:35 437.095 MHz 1200 baud AX-25 AFSK
Gurwin Techsat 1B 21 Oct 06:00:04 06:02:35 14° 301° (WNW) 06:05:05 435.225 FM
PCSat 21 Oct 06:06:57 06:12:15 55° 303° (WNW) 06:17:35 145.825 MHz
TMSAT-1 21 Oct 06:14:06 06:16:36 14° 301° (WNW) 06:19:05 436.925 FM
Uosat F 21 Oct 06:17:36 06:22:37 65° 287° (WNW) 06:27:36 435.120 FM
